| time (UTC) | temp F | wind direction | speed MPH | gust MPH | rain 1hr in | rain 24hr in | rain mn in | humidity % | barometer mb |
| 20260902231818 | 61 | 40 | 2.0 | 0.0 | 0.00 | 0.00 | 0.00 | 67 | |
| 20260902222221 | 64 | 260 | 5.0 | 0.0 | 0.00 | 0.00 | 0.00 | 59 | |
| 20260902211820 | 63 | 260 | 5.0 | 0.0 | 0.00 | 0.00 | 0.00 | 63 | |
| 20260902201820 | 64 | 280 | 5.0 | 0.0 | 0.00 | 0.00 | 0.00 | 59 | |
| 20260902192025 | 66 | 270 | 5.0 | 0.0 | 0.00 | 0.00 | 0.00 | 55 | |
| 20260902181818 | 68 | 290 | 5.0 | 0.0 | 0.00 | 0.00 | 0.00 | 52 | |
| 20260902172031 | 70 | 310 | 7.0 | 0.0 | 0.00 | 0.00 | 0.00 | 49 | |
| 20260902162221 | 72 | 270 | 5.0 | 0.0 | 0.00 | 0.00 | 0.00 | 46 | |
| 20260902151817 | 72 | 250 | 5.0 | 0.0 | 0.00 | 0.00 | 0.00 | 46 | |
| 20260902142032 | 73 | 260 | 7.0 | 0.0 | 0.00 | 0.00 | 0.00 | 43 | |
| 20260902132030 | 73 | 280 | 9.0 | 0.0 | 0.00 | 0.00 | 0.00 | 43 | |
| 20260902121820 | 72 | 300 | 5.0 | 0.0 | 0.00 | 0.00 | 0.00 | 43 | |
| 20260902112031 | 72 | 280 | 5.0 | 0.0 | 0.00 | 0.00 | 0.00 | 46 | |
| 20260902102120 | 72 | 290 | 7.0 | 0.0 | 0.00 | 0.00 | 0.00 | 46 | |
| 20260902091818 | 68 | 230 | 2.0 | 0.0 | 0.00 | 0.00 | 0.00 | 60 | |
| 20260902082030 | 64 | 220 | 2.0 | 0.0 | 0.00 | 0.00 | 0.00 | 67 | |
| 20260902071918 | 63 | 210 | 2.0 | 0.0 | 0.00 | 0.00 | 0.00 | 72 | |
| 20260902061819 | 57 | 210 | 2.0 | 0.0 | 0.00 | 0.00 | 0.00 | 76 | |
| 20260902052003 | 54 | 240 | 5.0 | 0.0 | 0.00 | 0.00 | 0.00 | 87 | |
| 20260902042121 | 57 | 180 | 2.0 | 0.0 | 0.00 | 0.00 | 0.00 | 76 | |
| 20260902031817 | 57 | 240 | 5.0 | 0.0 | 0.00 | 0.00 | 0.00 | 76 | |
| 20260902022030 | 57 | 300 | 2.0 | 0.0 | 0.00 | 0.00 | 0.00 | 76 | |
| 20260902012029 | 55 | 250 | 5.0 | 0.0 | 0.00 | 0.00 | 0.00 | 82 | |
| 20260902001819 | 57 | 220 | 7.0 | 0.0 | 0.00 | 0.00 | 0.00 | 71 |